User: anonymous   Login
Location: Platte
(43.3870°N, 98.8440°W)
Time: 21:14:07
(UTC-05:00)
Language:

Landsat 7 - Orbit

View from above orbital plane
View from above orbital plane
View from above satellite
View from above satellite

Ground track
Ground track

The orbit data is extracted from the following two-line orbital elements,

1 25682U 99020A   15239.20973444  .00000140  00000-0  41174-4 0  9992
2 25682 098.2140 308.1816 0000981 091.8833 268.2466 14.57113276870484
Epoch (UTC): 27 August 2015 05:02:01
Eccentricity: 0.0000981
inclination: 98.2140°
perigee height: 702 km
apogee height: 703 km
right ascension of ascending node: 308.1816°
argument of perigee: 91.8833°
revolutions per day: 14.57113276
mean anomaly at epoch: 268.2466°
orbit number at epoch: 87048

The dashed part of the orbit path shows where the satellite is in the earth's shadow,  

DLR